DLH3Y EDDM-KIAD

Flight info

Callsign DLH3Y
Flight time N/A
Altitude 38000
Route GIVMI6Q/08L GIVMI Y101 INBED DCT REKDI DCT LOHRE DCT ADKUV DCT LENDO DCT SOGRI DCT DENUT L610 KOPUL Q60 OKSAW DCT TEWXI DCT VATRY DCT SUTEX DCT RIKUL DCT DOGAL/M083F390 NATA ALLRY/N0476F400 N476B TOPPS DCT KAYCC DCT KYLOH DCT BAF HYPER9
Aircraft A388/J-SADE2E3GHIJ3J4J5LM1OP2RWXYZ/LB1D1

Departure

Time 2026-05-01 10:00
Airport Munich Airport (EDDM)

Arrival

Time N/A
Airport Washington Dulles International Airport (KIAD)
Time Latitude Longitude Altitude Speed Heading
2026-05-01 09:30 48.35489 11.79310 1461 ft 0 kts 263°
2026-05-01 09:44 48.35498 11.79373 1463 ft 4 kts 249°
2026-05-01 09:44 48.35510 11.79409 1460 ft 4 kts 232°
2026-05-01 09:44 48.35528 11.79435 1460 ft 4 kts 199°
2026-05-01 09:45 48.35541 11.79439 1460 ft 2 kts 174°
2026-05-01 09:48 48.35523 11.79442 1460 ft 5 kts 174°
2026-05-01 09:48 48.35481 11.79449 1463 ft 7 kts 174°
2026-05-01 09:48 48.35427 11.79457 1463 ft 8 kts 174°
2026-05-01 09:48 48.35366 11.79467 1466 ft 9 kts 173°
2026-05-01 09:49 48.35300 11.79478 1465 ft 10 kts 174°
2026-05-01 09:49 48.35228 11.79490 1464 ft 11 kts 173°
2026-05-01 09:49 48.35153 11.79506 1466 ft 11 kts 172°
2026-05-01 09:49 48.35078 11.79521 1466 ft 11 kts 174°
2026-05-01 09:50 48.35001 11.79534 1467 ft 11 kts 174°
2026-05-01 09:50 48.34920 11.79547 1462 ft 12 kts 173°
2026-05-01 09:50 48.34837 11.79560 1468 ft 12 kts 177°
2026-05-01 09:50 48.34787 11.79502 1463 ft 10 kts 251°
2026-05-01 09:51 48.34775 11.79373 1466 ft 14 kts 264°
2026-05-01 09:51 48.34764 11.79203 1467 ft 18 kts 264°
2026-05-01 09:51 48.34751 11.78991 1463 ft 22 kts 264°
2026-05-01 09:51 48.34732 11.78747 1470 ft 25 kts 262°
2026-05-01 09:52 48.34707 11.78478 1464 ft 24 kts 262°
2026-05-01 09:52 48.34690 11.78275 1468 ft 21 kts 263°
2026-05-01 09:52 48.34671 11.78037 1471 ft 24 kts 263°
2026-05-01 09:52 48.34652 11.77770 1461 ft 27 kts 264°
2026-05-01 09:53 48.34631 11.77482 1469 ft 29 kts 263°
2026-05-01 09:53 48.34612 11.77232 1471 ft 25 kts 263°
2026-05-01 09:53 48.34591 11.76965 1467 ft 26 kts 263°
2026-05-01 09:53 48.34581 11.76830 1463 ft 11 kts 263°
2026-05-01 09:54 48.34571 11.76701 1471 ft 15 kts 263°
2026-05-01 09:54 48.34557 11.76529 1465 ft 19 kts 263°
2026-05-01 09:54 48.34541 11.76315 1466 ft 23 kts 263°
2026-05-01 09:54 48.34522 11.76068 1461 ft 23 kts 263°
2026-05-01 09:55 48.34502 11.75816 1467 ft 26 kts 263°
2026-05-01 09:55 48.34483 11.75563 1464 ft 25 kts 263°
2026-05-01 09:55 48.34461 11.75289 1464 ft 28 kts 263°
2026-05-01 09:55 48.34444 11.75071 1465 ft 19 kts 263°
2026-05-01 09:56 48.34374 11.74921 1463 ft 18 kts 200°
2026-05-01 09:56 48.34256 11.74920 1462 ft 17 kts 170°
2026-05-01 09:56 48.34166 11.74999 1460 ft 14 kts 129°
2026-05-01 09:56 48.34110 11.75099 1462 ft 10 kts 129°
2026-05-01 09:57 48.34079 11.75167 1466 ft 6 kts 104°
2026-05-01 09:57 48.34077 11.75210 1468 ft 3 kts 85°
2026-05-01 09:57 48.34078 11.75238 1469 ft 2 kts 86°
2026-05-01 09:57 48.34079 11.75255 1470 ft 1 kts 85°
2026-05-01 09:58 48.34079 11.75265 1472 ft 1 kts 87°
2026-05-01 09:58 48.34080 11.75294 1471 ft 3 kts 84°
2026-05-01 09:58 48.34083 11.75317 1479 ft 0 kts 82°
2026-05-01 09:58 48.34083 11.75318 1479 ft 0 kts 83°
2026-05-01 09:59 48.34083 11.75322 1479 ft 4 kts 83°
2026-05-01 09:59 48.34113 11.75721 1475 ft 74 kts 84°
2026-05-01 09:59 48.34195 11.76776 1466 ft 128 kts 83°
2026-05-01 10:00 48.34309 11.78282 1518 ft 156 kts 84°
2026-05-01 10:00 48.34449 11.79869 2053 ft 149 kts 83°
2026-05-01 10:00 48.34581 11.81470 2395 ft 160 kts 84°
2026-05-01 10:00 48.34709 11.83160 2830 ft 162 kts 84°
2026-05-01 10:01 48.34827 11.84822 3261 ft 163 kts 85°
2026-05-01 10:01 48.34960 11.86603 3423 ft 181 kts 84°
2026-05-01 10:01 48.35113 11.88576 3595 ft 197 kts 84°
2026-05-01 10:01 48.35275 11.90648 3899 ft 202 kts 85°
2026-05-01 10:02 48.35442 11.92819 4389 ft 210 kts 84°
2026-05-01 10:02 48.35906 11.94892 5246 ft 213 kts 64°
2026-05-01 10:02 48.36883 11.96611 6006 ft 221 kts 39°
2026-05-01 10:02 48.38294 11.97532 6843 ft 227 kts 13°
2026-05-01 10:03 48.39902 11.97392 7545 ft 239 kts 345°
2026-05-01 10:03 48.41324 11.96062 8322 ft 246 kts 315°
2026-05-01 10:03 48.42179 11.93830 9102 ft 251 kts 288°
2026-05-01 10:03 48.42817 11.91368 9792 ft 254 kts 303°
2026-05-01 10:04 48.43823 11.89190 10516 ft 254 kts 310°
2026-05-01 10:04 48.44910 11.87083 11214 ft 256 kts 310°
2026-05-01 10:04 48.45983 11.84917 11900 ft 259 kts 309°
2026-05-01 10:04 48.47024 11.82680 12570 ft 263 kts 308°
2026-05-01 10:05 48.48047 11.80388 13283 ft 264 kts 307°
2026-05-01 10:05 48.49059 11.78074 13976 ft 267 kts 307°
2026-05-01 10:05 48.50073 11.75747 14605 ft 269 kts 307°
2026-05-01 10:05 48.51104 11.73380 15183 ft 273 kts 307°
2026-05-01 10:06 48.52163 11.70951 15742 ft 276 kts 307°
2026-05-01 10:06 48.53203 11.68559 16335 ft 278 kts 307°
2026-05-01 10:06 48.54267 11.66110 16899 ft 281 kts 307°
2026-05-01 10:06 48.55342 11.63635 17453 ft 284 kts 307°
2026-05-01 10:07 48.56428 11.61134 17981 ft 288 kts 308°
2026-05-01 10:07 48.57635 11.58618 18141 ft 302 kts 315°
2026-05-01 10:07 48.59055 11.56158 18294 ft 317 kts 315°
2026-05-01 10:07 48.60525 11.53583 18434 ft 332 kts 315°
2026-05-01 10:08 48.63661 11.48018 18724 ft 361 kts 314°
2026-05-01 10:08 48.65315 11.45070 18852 ft 375 kts 314°
2026-05-01 10:08 48.67029 11.42015 18987 ft 387 kts 314°
2026-05-01 10:09 48.68783 11.38896 19370 ft 390 kts 315°
2026-05-01 10:09 48.70715 11.36057 19779 ft 389 kts 323°
2026-05-01 10:09 48.72894 11.33654 20215 ft 388 kts 330°
2026-05-01 10:09 48.75147 11.31419 20658 ft 390 kts 330°
2026-05-01 10:10 48.77413 11.29130 21066 ft 393 kts 329°
2026-05-01 10:10 48.79683 11.26820 21517 ft 394 kts 329°
2026-05-01 10:10 48.84301 11.22375 22357 ft 395 kts 336°
2026-05-01 10:11 48.86796 11.20748 22805 ft 394 kts 344°
2026-05-01 10:11 48.89432 11.19444 23243 ft 395 kts 345°
2026-05-01 10:11 48.92043 11.18129 23658 ft 397 kts 344°
2026-05-01 10:11 48.94675 11.16786 24053 ft 400 kts 344°
2026-05-01 10:12 48.97316 11.15435 24419 ft 401 kts 344°
2026-05-01 10:12 48.99067 11.14540 24653 ft 402 kts 344°
2026-05-01 10:12 49.05299 11.11361 25495 ft 406 kts 344°
2026-05-01 10:13 49.07985 11.09990 25870 ft 408 kts 344°
2026-05-01 10:13 49.10683 11.08611 26211 ft 411 kts 344°
2026-05-01 10:13 49.13403 11.07222 26555 ft 413 kts 344°
2026-05-01 10:14 49.18870 11.04430 27400 ft 417 kts 344°
2026-05-01 10:14 49.21626 11.03017 27841 ft 419 kts 343°
2026-05-01 10:14 49.24407 11.01586 28196 ft 423 kts 343°
2026-05-01 10:14 49.27194 11.00148 28627 ft 425 kts 343°
2026-05-01 10:15 49.30004 10.98697 29076 ft 427 kts 343°
2026-05-01 10:15 49.32816 10.97244 29490 ft 429 kts 343°
2026-05-01 10:15 49.35641 10.95684 29881 ft 433 kts 338°
2026-05-01 10:15 49.38287 10.93421 30325 ft 439 kts 327°
2026-05-01 10:16 49.40651 10.90406 30712 ft 445 kts 317°
2026-05-01 10:16 49.42648 10.86819 31077 ft 449 kts 311°
2026-05-01 10:16 49.46601 10.79310 31806 ft 454 kts 312°
2026-05-01 10:17 49.48599 10.75538 32142 ft 456 kts 311°
2026-05-01 10:17 49.52615 10.67917 32860 ft 461 kts 311°
2026-05-01 10:17 49.54628 10.64081 33215 ft 463 kts 311°
2026-05-01 10:18 49.58689 10.56327 33930 ft 467 kts 311°
2026-05-01 10:18 49.60732 10.52417 34269 ft 469 kts 311°
2026-05-01 10:18 49.62784 10.48484 34595 ft 472 kts 311°
2026-05-01 10:19 49.64841 10.44534 34896 ft 474 kts 311°
2026-05-01 10:19 49.66780 10.40389 35183 ft 477 kts 306°
2026-05-01 10:19 49.68638 10.36137 35618 ft 476 kts 306°
2026-05-01 10:20 49.72359 10.27725 36361 ft 476 kts 306°
2026-05-01 10:20 49.74227 10.23495 36391 ft 473 kts 306°
2026-05-01 10:20 49.77902 10.15136 36384 ft 470 kts 306°
2026-05-01 10:21 49.83419 10.02527 36391 ft 472 kts 306°
2026-05-01 10:22 49.88910 9.89917 36382 ft 470 kts 306°
2026-05-01 10:23 49.94393 9.77265 36378 ft 471 kts 306°
2026-05-01 10:23 49.99242 9.66026 36376 ft 471 kts 306°
2026-05-01 10:24 50.06180 9.48775 36376 ft 471 kts 296°
2026-05-01 10:25 50.10107 9.29239 36375 ft 474 kts 287°
2026-05-01 10:26 50.11852 9.19410 36377 ft 474 kts 287°
2026-05-01 10:27 50.15314 8.99554 36375 ft 475 kts 287°
2026-05-01 10:28 50.17879 8.84663 36376 ft 475 kts 287°
2026-05-01 10:28 50.20424 8.69775 36376 ft 475 kts 287°
2026-05-01 10:29 50.22958 8.54819 36375 ft 475 kts 287°
2026-05-01 10:30 50.26305 8.34858 36378 ft 475 kts 286°
2026-05-01 10:31 50.29613 8.14889 36371 ft 473 kts 287°
2026-05-01 10:32 50.32061 7.99978 36366 ft 475 kts 286°
2026-05-01 10:33 50.35311 7.79964 36370 ft 478 kts 285°
2026-05-01 10:34 50.37738 7.64857 36363 ft 478 kts 285°
2026-05-01 10:34 50.39346 7.54769 36358 ft 478 kts 285°
2026-05-01 10:35 50.41748 7.39605 36346 ft 477 kts 284°
2026-05-01 10:35 50.43332 7.29510 36351 ft 477 kts 285°
2026-05-01 10:36 50.45694 7.14355 36346 ft 477 kts 284°
2026-05-01 10:37 50.47255 7.04253 36334 ft 477 kts 284°
2026-05-01 10:37 50.49588 6.89051 36338 ft 478 kts 284°
2026-05-01 10:38 50.51272 6.78966 36320 ft 477 kts 289°
2026-05-01 10:38 50.53477 6.69128 36298 ft 477 kts 290°
2026-05-01 10:39 50.55670 6.59274 36298 ft 478 kts 290°
2026-05-01 10:39 50.57843 6.49396 36290 ft 479 kts 289°
2026-05-01 10:40 50.60013 6.39461 36292 ft 479 kts 289°
2026-05-01 10:40 50.62168 6.29542 36287 ft 479 kts 288°
2026-05-01 10:41 50.63803 6.19436 36287 ft 479 kts 283°
2026-05-01 10:42 50.66125 6.04132 36281 ft 479 kts 283°
2026-05-01 10:42 50.67668 5.93872 36282 ft 477 kts 283°
2026-05-01 10:43 50.69178 5.83734 36286 ft 478 kts 283°
2026-05-01 10:43 50.70689 5.73523 36286 ft 478 kts 283°
2026-05-01 10:44 50.72201 5.63240 36286 ft 478 kts 283°
2026-05-01 10:44 50.73689 5.53057 36291 ft 479 kts 282°
2026-05-01 10:45 50.75186 5.42737 36291 ft 479 kts 282°
2026-05-01 10:45 50.76662 5.32499 36290 ft 479 kts 282°
2026-05-01 10:46 50.78115 5.22346 36289 ft 479 kts 282°
2026-05-01 10:46 50.79577 5.12072 36284 ft 480 kts 281°
2026-05-01 10:47 50.81506 5.01975 36281 ft 481 kts 292°
2026-05-01 10:47 50.84478 4.92492 36281 ft 481 kts 296°
2026-05-01 10:48 50.87465 4.83038 36281 ft 481 kts 295°
2026-05-01 10:48 50.90450 4.73552 36280 ft 481 kts 295°
2026-05-01 10:49 50.93437 4.64033 36292 ft 485 kts 295°
2026-05-01 10:49 50.96434 4.54451 36293 ft 484 kts 295°
2026-05-01 10:50 50.99417 4.44871 36294 ft 484 kts 295°
2026-05-01 10:50 51.02394 4.35279 36290 ft 484 kts 295°
2026-05-01 10:51 51.05360 4.25681 36285 ft 484 kts 295°
2026-05-01 10:51 51.08322 4.16063 36276 ft 485 kts 294°
2026-05-01 10:52 51.11275 4.06432 36270 ft 483 kts 294°
2026-05-01 10:52 51.14222 3.96787 36254 ft 485 kts 294°
2026-05-01 10:53 51.17158 3.87133 36246 ft 484 kts 294°
2026-05-01 10:53 51.20088 3.77465 36244 ft 486 kts 294°
2026-05-01 10:54 51.22925 3.67691 36241 ft 485 kts 289°
2026-05-01 10:54 51.24721 3.57427 36242 ft 482 kts 279°
2026-05-01 10:55 51.26100 3.46944 36238 ft 483 kts 280°
2026-05-01 10:55 51.27503 3.36394 36235 ft 483 kts 280°
2026-05-01 10:56 51.28850 3.25947 36234 ft 484 kts 279°
2026-05-01 10:56 51.30188 3.15452 36234 ft 483 kts 279°
2026-05-01 10:57 51.31521 3.04925 36237 ft 483 kts 279°
2026-05-01 10:57 51.32845 2.94394 36237 ft 483 kts 279°
2026-05-01 10:58 51.34162 2.83848 36235 ft 484 kts 279°
2026-05-01 10:58 51.35441 2.73518 36230 ft 485 kts 279°
2026-05-01 10:59 51.36737 2.63021 36230 ft 485 kts 278°
2026-05-01 10:59 51.38034 2.52442 36230 ft 485 kts 278°
2026-05-01 11:00 51.39322 2.41844 36231 ft 484 kts 278°
2026-05-01 11:00 51.40601 2.31245 36232 ft 485 kts 278°
2026-05-01 11:01 51.41872 2.20678 36237 ft 485 kts 278°
2026-05-01 11:01 51.43168 2.10091 36238 ft 484 kts 278°
2026-05-01 11:02 51.44454 1.99490 36238 ft 484 kts 278°
2026-05-01 11:02 51.45705 1.88865 36243 ft 485 kts 277°
2026-05-01 11:03 51.46926 1.78326 36236 ft 484 kts 277°
2026-05-01 11:03 51.48153 1.67711 36233 ft 484 kts 277°
2026-05-01 11:04 51.49370 1.57092 36230 ft 484 kts 277°
2026-05-01 11:04 51.50575 1.46457 36228 ft 484 kts 277°
2026-05-01 11:05 51.51772 1.35803 36229 ft 485 kts 277°
2026-05-01 11:05 51.52954 1.25185 36216 ft 484 kts 277°
2026-05-01 11:06 51.54122 1.14586 36208 ft 484 kts 276°
2026-05-01 11:06 51.54846 1.03867 36208 ft 482 kts 272°
2026-05-01 11:07 51.55872 0.87826 36203 ft 482 kts 272°
2026-05-01 11:07 51.56539 0.77142 36211 ft 482 kts 272°
2026-05-01 11:08 51.57086 0.68245 36207 ft 482 kts 272°
2026-05-01 11:09 51.58058 0.52155 36203 ft 482 kts 272°
2026-05-01 11:09 51.58793 0.39724 36198 ft 482 kts 272°
2026-05-01 11:10 51.59625 0.25378 36183 ft 482 kts 272°
2026-05-01 11:10 51.60231 0.14714 36189 ft 482 kts 271°
2026-05-01 11:11 51.60835 0.03933 36182 ft 482 kts 271°
2026-05-01 11:11 51.61422 -0.06742 36184 ft 481 kts 272°
2026-05-01 11:12 51.62022 -0.17438 36180 ft 480 kts 272°
2026-05-01 11:12 51.62692 -0.28121 36181 ft 480 kts 272°
2026-05-01 11:13 51.63351 -0.38809 36180 ft 480 kts 272°
2026-05-01 11:13 51.63992 -0.49516 36184 ft 480 kts 272°
2026-05-01 11:14 51.64621 -0.60225 36179 ft 480 kts 272°
2026-05-01 11:14 51.65240 -0.70923 36175 ft 480 kts 272°
2026-05-01 11:15 51.65849 -0.81632 36165 ft 480 kts 272°
2026-05-01 11:15 51.66449 -0.92339 36160 ft 480 kts 272°
2026-05-01 11:16 51.67037 -1.03042 36158 ft 479 kts 272°
2026-05-01 11:16 51.67612 -1.13672 36158 ft 478 kts 272°
2026-05-01 11:17 51.68181 -1.24363 36154 ft 479 kts 272°
2026-05-01 11:17 51.68736 -1.34973 36154 ft 479 kts 272°
2026-05-01 11:18 51.69288 -1.45734 36167 ft 479 kts 272°
2026-05-01 11:18 51.69824 -1.56354 36158 ft 478 kts 272°
2026-05-01 11:19 51.70741 -1.66984 36158 ft 482 kts 282°
2026-05-01 11:19 51.73065 -1.77113 36157 ft 487 kts 294°
2026-05-01 11:20 51.76120 -1.86873 36156 ft 487 kts 294°
2026-05-01 11:20 51.79124 -1.96628 36163 ft 487 kts 294°
2026-05-01 11:21 51.81908 -2.06546 36160 ft 484 kts 288°
2026-05-01 11:21 51.84248 -2.16766 36145 ft 484 kts 288°
2026-05-01 11:22 51.86618 -2.26985 36157 ft 484 kts 288°
2026-05-01 11:22 51.88966 -2.37178 36163 ft 485 kts 288°
2026-05-01 11:23 51.91309 -2.47427 36145 ft 485 kts 288°
2026-05-01 11:23 51.93637 -2.57665 36156 ft 485 kts 288°
2026-05-01 11:24 51.95959 -2.67924 36151 ft 485 kts 288°
2026-05-01 11:25 51.99427 -2.83339 36154 ft 485 kts 287°
2026-05-01 11:25 52.02872 -2.98763 36157 ft 486 kts 287°
2026-05-01 11:26 52.06292 -3.14193 36160 ft 486 kts 287°
2026-05-01 11:27 52.08576 -3.24564 36162 ft 486 kts 287°
2026-05-01 11:27 52.10829 -3.34844 36169 ft 486 kts 287°
2026-05-01 11:28 52.13089 -3.45206 36185 ft 486 kts 286°
2026-05-01 11:28 52.15344 -3.55598 36173 ft 488 kts 286°
2026-05-01 11:29 52.18716 -3.71235 36173 ft 487 kts 286°
2026-05-01 11:30 52.22062 -3.86873 36176 ft 487 kts 286°
2026-05-01 11:30 52.24288 -3.97340 36187 ft 489 kts 285°
2026-05-01 11:31 52.26508 -4.07839 36174 ft 490 kts 285°
2026-05-01 11:31 52.28723 -4.18367 36173 ft 490 kts 285°
2026-05-01 11:32 52.30927 -4.28895 36173 ft 490 kts 285°
2026-05-01 11:32 52.33113 -4.39394 36173 ft 490 kts 285°
2026-05-01 11:33 52.35301 -4.49957 36173 ft 492 kts 284°
2026-05-01 11:33 52.37484 -4.60555 36173 ft 492 kts 284°
2026-05-01 11:34 52.39662 -4.71181 36172 ft 492 kts 284°
2026-05-01 11:34 52.41829 -4.81816 36181 ft 492 kts 284°
2026-05-01 11:35 52.43971 -4.92381 36181 ft 492 kts 284°
2026-05-01 11:35 52.46106 -5.02970 36189 ft 494 kts 283°
2026-05-01 11:36 52.48267 -5.13746 36178 ft 495 kts 283°
2026-05-01 11:36 52.50393 -5.24403 36181 ft 494 kts 283°
2026-05-01 11:37 52.52520 -5.35129 36176 ft 494 kts 283°
2026-05-01 11:37 52.54646 -5.45882 36174 ft 494 kts 283°
2026-05-01 11:38 52.56758 -5.56642 36174 ft 494 kts 283°
2026-05-01 11:38 52.58846 -5.67402 36170 ft 494 kts 283°
2026-05-01 11:39 52.60930 -5.78174 36167 ft 494 kts 283°
2026-05-01 11:39 52.63004 -5.88945 36154 ft 494 kts 283°
2026-05-01 11:40 52.65065 -5.99714 36164 ft 493 kts 282°
2026-05-01 11:40 52.67126 -6.10543 36153 ft 497 kts 282°
2026-05-01 11:41 52.69184 -6.21416 36156 ft 497 kts 282°
2026-05-01 11:41 52.71230 -6.32286 36146 ft 497 kts 282°
2026-05-01 11:42 52.73265 -6.43167 36147 ft 496 kts 282°
2026-05-01 11:42 52.75290 -6.54058 36146 ft 496 kts 282°
2026-05-01 11:43 52.77298 -6.64923 36146 ft 499 kts 282°
2026-05-01 11:43 52.79327 -6.75962 36137 ft 499 kts 282°
2026-05-01 11:44 52.82321 -6.92367 36132 ft 499 kts 282°
2026-05-01 11:44 52.84243 -7.03381 36133 ft 498 kts 280°
2026-05-01 11:45 52.86101 -7.14428 36129 ft 501 kts 280°
2026-05-01 11:45 52.87973 -7.25545 36129 ft 501 kts 280°
2026-05-01 11:46 52.89839 -7.36650 36124 ft 501 kts 280°
2026-05-01 11:46 52.91695 -7.47763 36124 ft 501 kts 280°
2026-05-01 11:47 52.93535 -7.58860 36118 ft 501 kts 280°
2026-05-01 11:47 52.95366 -7.69967 36129 ft 503 kts 279°
2026-05-01 11:48 52.97198 -7.81156 36126 ft 502 kts 279°
2026-05-01 11:48 52.99020 -7.92357 36117 ft 502 kts 279°
2026-05-01 11:49 53.00830 -8.03562 36116 ft 502 kts 279°
2026-05-01 11:49 53.02627 -8.14756 36144 ft 502 kts 279°
2026-05-01 11:50 53.04418 -8.25991 36105 ft 503 kts 279°
2026-05-01 11:50 53.06203 -8.37222 36099 ft 503 kts 279°
2026-05-01 11:51 53.08112 -8.48410 36098 ft 504 kts 281°
2026-05-01 11:51 53.10045 -8.59549 36092 ft 504 kts 281°
2026-05-01 11:52 53.11979 -8.70817 36127 ft 503 kts 281°
2026-05-01 11:52 53.13883 -8.82044 36088 ft 503 kts 281°
2026-05-01 11:53 53.15754 -8.93183 36089 ft 503 kts 280°
2026-05-01 11:53 53.17628 -9.04421 36089 ft 503 kts 280°
2026-05-01 11:54 53.19488 -9.15649 36089 ft 503 kts 280°
2026-05-01 11:54 53.21339 -9.26897 36099 ft 503 kts 281°
2026-05-01 11:55 53.23179 -9.38140 36092 ft 501 kts 281°
2026-05-01 11:55 53.25002 -9.49365 36093 ft 502 kts 280°
2026-05-01 11:56 53.26819 -9.60622 36094 ft 502 kts 280°
2026-05-01 11:56 53.28619 -9.71852 36097 ft 502 kts 280°
2026-05-01 11:57 53.30110 -9.81211 36115 ft 502 kts 281°
2026-05-01 11:57 53.32179 -9.94286 36100 ft 499 kts 281°
2026-05-01 11:58 53.33650 -10.03648 36096 ft 501 kts 281°
2026-05-01 11:59 53.36290 -10.20578 36096 ft 501 kts 281°
2026-05-01 11:59 53.38037 -10.31872 36095 ft 501 kts 280°
2026-05-01 12:00 53.40615 -10.48701 36089 ft 498 kts 281°
2026-05-01 12:01 53.43178 -10.65599 36092 ft 499 kts 281°
2026-05-01 12:01 53.44874 -10.76881 36088 ft 498 kts 281°
2026-05-01 12:02 53.46559 -10.88167 36082 ft 498 kts 281°
2026-05-01 12:02 53.48215 -10.99340 36084 ft 498 kts 280°
2026-05-01 12:03 53.49878 -11.10643 36074 ft 499 kts 281°
2026-05-01 12:03 53.51530 -11.21946 36078 ft 499 kts 280°
2026-05-01 12:04 53.53172 -11.33264 36075 ft 499 kts 280°
2026-05-01 12:04 53.54805 -11.44602 36071 ft 498 kts 280°
2026-05-01 12:05 53.56424 -11.55942 36071 ft 499 kts 281°
2026-05-01 12:05 53.58832 -11.72931 36061 ft 499 kts 281°
2026-05-01 12:06 53.60427 -11.84303 36061 ft 499 kts 281°
2026-05-01 12:06 53.62006 -11.95643 36060 ft 499 kts 280°
2026-05-01 12:07 53.63580 -12.07033 36057 ft 500 kts 281°
2026-05-01 12:07 53.65148 -12.18472 36049 ft 501 kts 281°
2026-05-01 12:08 53.66708 -12.29930 36054 ft 502 kts 281°
2026-05-01 12:08 53.68256 -12.41391 36052 ft 502 kts 281°
2026-05-01 12:09 53.69795 -12.52874 36056 ft 501 kts 281°
2026-05-01 12:09 53.71322 -12.64365 36056 ft 501 kts 281°
2026-05-01 12:10 53.73581 -12.81524 36055 ft 500 kts 281°
2026-05-01 12:11 53.75811 -12.98674 36063 ft 500 kts 281°
2026-05-01 12:11 53.77289 -13.10151 36066 ft 500 kts 281°
2026-05-01 12:12 53.78770 -13.21765 36060 ft 508 kts 281°
2026-05-01 12:12 53.80233 -13.33309 36073 ft 502 kts 282°
2026-05-01 12:13 53.81687 -13.44882 36073 ft 505 kts 281°
2026-05-01 12:13 53.83140 -13.56544 36074 ft 505 kts 281°
2026-05-01 12:14 53.84566 -13.68089 36076 ft 501 kts 281°
2026-05-01 12:14 53.85981 -13.79659 36083 ft 501 kts 282°
2026-05-01 12:15 53.87387 -13.91242 36089 ft 500 kts 281°
2026-05-01 12:15 53.88777 -14.02782 36097 ft 499 kts 281°
2026-05-01 12:16 53.90148 -14.14266 36104 ft 501 kts 281°
2026-05-01 12:16 53.91513 -14.25812 36106 ft 499 kts 281°
2026-05-01 12:17 53.92855 -14.37279 36109 ft 494 kts 283°
2026-05-01 12:17 53.94192 -14.48764 36118 ft 496 kts 282°
2026-05-01 12:18 53.95517 -14.60260 36116 ft 495 kts 282°
2026-05-01 12:18 53.96826 -14.71722 36130 ft 496 kts 282°
2026-05-01 12:19 53.98136 -14.83250 36132 ft 498 kts 283°
2026-05-01 12:19 53.99420 -14.94698 36139 ft 491 kts 282°
2026-05-01 12:20 54.00146 -15.06240 36136 ft 494 kts 274°
2026-05-01 12:20 54.00322 -15.17956 36157 ft 494 kts 274°
2026-05-01 12:21 54.00564 -15.29619 36153 ft 494 kts 275°
2026-05-01 12:21 54.00787 -15.41311 36159 ft 495 kts 274°
2026-05-01 12:22 54.00983 -15.52931 36160 ft 489 kts 274°
2026-05-01 12:22 54.01167 -15.64474 36163 ft 489 kts 274°
2026-05-01 12:23 54.01340 -15.76015 36163 ft 490 kts 274°
2026-05-01 12:23 54.01501 -15.87579 36181 ft 490 kts 274°
2026-05-01 12:24 54.01651 -15.99085 36181 ft 490 kts 274°
2026-05-01 12:24 54.01788 -16.10626 36191 ft 487 kts 274°
2026-05-01 12:25 54.01979 -16.27967 36925 ft 490 kts 274°
2026-05-01 12:25 54.02036 -16.33738 37325 ft 489 kts 273°
2026-05-01 12:26 54.02090 -16.39465 37721 ft 489 kts 273°
2026-05-01 12:26 54.02192 -16.51068 38195 ft 495 kts 272°
2026-05-01 12:26 54.02238 -16.56888 38189 ft 491 kts 272°
2026-05-01 12:27 54.02359 -16.74337 38194 ft 492 kts 272°
2026-05-01 12:28 54.02455 -16.91790 38199 ft 493 kts 273°
2026-05-01 12:29 54.02528 -17.09256 38190 ft 492 kts 272°
2026-05-01 12:29 54.02574 -17.26719 38227 ft 492 kts 272°
2026-05-01 12:30 54.02595 -17.43972 38228 ft 491 kts 272°
2026-05-01 12:31 54.02595 -17.55592 38228 ft 490 kts 272°
2026-05-01 12:31 54.02584 -17.67157 38222 ft 489 kts 272°
2026-05-01 12:32 54.02562 -17.78722 38234 ft 488 kts 272°
2026-05-01 12:32 54.02508 -17.95989 38231 ft 488 kts 272°
2026-05-01 12:33 54.02459 -18.07521 38229 ft 487 kts 272°
2026-05-01 12:33 54.02399 -18.18991 38225 ft 487 kts 272°
2026-05-01 12:34 54.02327 -18.30499 38223 ft 487 kts 271°
2026-05-01 12:34 54.02245 -18.41947 38232 ft 487 kts 271°
2026-05-01 12:35 54.02152 -18.53462 38233 ft 488 kts 271°
2026-05-01 12:35 54.02047 -18.65005 38241 ft 488 kts 271°
2026-05-01 12:36 54.01931 -18.76547 38234 ft 488 kts 271°
2026-05-01 12:36 54.01803 -18.88091 38247 ft 488 kts 271°
2026-05-01 12:37 54.01666 -18.99614 38273 ft 487 kts 271°
2026-05-01 12:37 54.01518 -19.11116 38258 ft 486 kts 271°
2026-05-01 12:38 54.01359 -19.22591 38250 ft 485 kts 271°
2026-05-01 12:38 54.01190 -19.33966 38274 ft 483 kts 271°
2026-05-01 12:39 54.01011 -19.45379 38255 ft 482 kts 271°
2026-05-01 12:39 54.00821 -19.56743 38262 ft 481 kts 271°
2026-05-01 12:40 54.00621 -19.68104 38239 ft 480 kts 271°
2026-05-01 12:40 54.00410 -19.79439 38251 ft 480 kts 271°
2026-05-01 12:41 54.00194 -19.90741 38249 ft 480 kts 271°
2026-05-01 12:41 53.99890 -20.01996 38261 ft 481 kts 268°
2026-05-01 12:42 53.99192 -20.13309 38272 ft 482 kts 267°
2026-05-01 12:42 53.98538 -20.24648 38268 ft 482 kts 267°
2026-05-01 12:43 53.97885 -20.35970 38280 ft 482 kts 267°
2026-05-01 12:43 53.97216 -20.47297 38291 ft 482 kts 267°
2026-05-01 12:44 53.96535 -20.58620 38285 ft 482 kts 267°
2026-05-01 12:45 53.95133 -20.81141 38292 ft 482 kts 266°
2026-05-01 12:45 53.94414 -20.92382 38280 ft 482 kts 266°
2026-05-01 12:46 53.93810 -21.01698 38308 ft 480 kts 266°
2026-05-01 12:46 53.93081 -21.12815 38310 ft 480 kts 266°
2026-05-01 12:47 53.92334 -21.24022 38300 ft 479 kts 266°
2026-05-01 12:47 53.91578 -21.35216 38301 ft 479 kts 266°
2026-05-01 12:48 53.90810 -21.46414 38298 ft 479 kts 266°
2026-05-01 12:48 53.90032 -21.57618 38300 ft 478 kts 266°
2026-05-01 12:49 53.89242 -21.68839 38297 ft 478 kts 266°
2026-05-01 12:49 53.88444 -21.80025 38300 ft 479 kts 266°
2026-05-01 12:50 53.87633 -21.91228 38307 ft 479 kts 266°
2026-05-01 12:50 53.86812 -22.02434 38309 ft 479 kts 266°
2026-05-01 12:51 53.85985 -22.13568 38314 ft 479 kts 266°
2026-05-01 12:52 53.84717 -22.30371 38320 ft 479 kts 265°
2026-05-01 12:52 53.83428 -22.47136 38326 ft 479 kts 265°
2026-05-01 12:53 53.82116 -22.63878 38331 ft 479 kts 265°
2026-05-01 12:54 53.81234 -22.74969 38327 ft 479 kts 265°
2026-05-01 12:54 53.79879 -22.91746 38336 ft 479 kts 265°
2026-05-01 12:55 53.78509 -23.08410 38335 ft 479 kts 265°
2026-05-01 12:56 53.77579 -23.19573 38335 ft 479 kts 265°
2026-05-01 12:56 53.76638 -23.30729 38336 ft 479 kts 265°
2026-05-01 12:57 53.75688 -23.41862 38340 ft 479 kts 265°
2026-05-01 12:57 53.74241 -23.58574 38331 ft 479 kts 264°
2026-05-01 12:58 53.73265 -23.69704 38343 ft 479 kts 264°
2026-05-01 12:59 53.71781 -23.86385 38349 ft 479 kts 264°
2026-05-01 12:59 53.70274 -24.03060 38358 ft 479 kts 264°
2026-05-01 13:00 53.68742 -24.19726 38361 ft 479 kts 264°
2026-05-01 13:01 53.67191 -24.36357 38364 ft 479 kts 264°
2026-05-01 13:02 53.65614 -24.52991 38363 ft 479 kts 264°
2026-05-01 13:07 53.53398 -25.74148 38393 ft 474 kts 263°
2026-05-01 13:08 53.52234 -25.85058 38391 ft 474 kts 263°
2026-05-01 13:08 53.51062 -25.95953 38394 ft 474 kts 263°
2026-05-01 13:09 53.49878 -26.06856 38395 ft 474 kts 263°
2026-05-01 13:09 53.48686 -26.17731 38397 ft 474 kts 263°
2026-05-01 13:10 53.47488 -26.28569 38392 ft 474 kts 263°
2026-05-01 13:10 53.46274 -26.39459 38405 ft 475 kts 263°
2026-05-01 13:11 53.45050 -26.50341 38418 ft 475 kts 263°
2026-05-01 13:11 53.43815 -26.61230 38418 ft 476 kts 263°
2026-05-01 13:12 53.42565 -26.72151 38394 ft 476 kts 263°
2026-05-01 13:12 53.41308 -26.83043 38414 ft 476 kts 263°
2026-05-01 13:13 53.40049 -26.93862 38429 ft 477 kts 263°
2026-05-01 13:13 53.38767 -27.04788 38428 ft 478 kts 263°
2026-05-01 13:14 53.37466 -27.15777 38415 ft 478 kts 263°
2026-05-01 13:14 53.36164 -27.26690 38415 ft 478 kts 263°
2026-05-01 13:15 53.34863 -27.37495 38415 ft 478 kts 262°
2026-05-01 13:15 53.33541 -27.48399 38425 ft 477 kts 262°
2026-05-01 13:16 53.32212 -27.59259 38425 ft 477 kts 262°
2026-05-01 13:16 53.30873 -27.70124 38447 ft 476 kts 262°
2026-05-01 13:17 53.28177 -27.91739 38433 ft 475 kts 262°
2026-05-01 13:18 53.26131 -28.07914 38431 ft 474 kts 262°
2026-05-01 13:18 53.24753 -28.18705 38437 ft 474 kts 262°
2026-05-01 13:19 53.23370 -28.29455 38436 ft 474 kts 262°
2026-05-01 13:20 53.21273 -28.45595 38447 ft 475 kts 262°
2026-05-01 13:20 53.19862 -28.56355 38452 ft 475 kts 262°
2026-05-01 13:21 53.17723 -28.72517 38451 ft 475 kts 262°
2026-05-01 13:21 53.16292 -28.83225 38458 ft 475 kts 262°
2026-05-01 13:22 53.14847 -28.93961 38461 ft 475 kts 261°
2026-05-01 13:22 53.13391 -29.04694 38460 ft 475 kts 261°
2026-05-01 13:23 53.11938 -29.15333 38462 ft 475 kts 261°
2026-05-01 13:23 53.10464 -29.26053 38448 ft 475 kts 261°
2026-05-01 13:24 53.08981 -29.36753 38469 ft 474 kts 261°
2026-05-01 13:25 53.06741 -29.52773 38456 ft 474 kts 261°
2026-05-01 13:25 53.05240 -29.63437 38469 ft 474 kts 261°
2026-05-01 13:26 53.03734 -29.74104 38467 ft 474 kts 261°
2026-05-01 13:26 53.02221 -29.84751 38483 ft 473 kts 260°
2026-05-01 13:27 53.00702 -29.95367 38486 ft 473 kts 260°
2026-05-01 13:27 52.99095 -30.11383 38473 ft 466 kts 270°
2026-05-01 13:28 52.98379 -30.27468 38453 ft 466 kts 268°
2026-05-01 13:29 52.97142 -30.48893 38477 ft 468 kts 268°
2026-05-01 13:31 52.95166 -30.81046 38488 ft 469 kts 267°
2026-05-01 13:32 52.93436 -31.07958 38496 ft 470 kts 266°
2026-05-01 13:33 52.91646 -31.34842 38520 ft 468 kts 266°
2026-05-01 13:34 52.90298 -31.54489 38487 ft 468 kts 265°
2026-05-01 13:35 52.89178 -31.70461 38488 ft 468 kts 265°
2026-05-01 13:36 52.88028 -31.86537 38512 ft 469 kts 265°
2026-05-01 13:36 52.86858 -32.02600 38508 ft 469 kts 265°
2026-05-01 13:37 52.86062 -32.13343 38502 ft 470 kts 265°
2026-05-01 13:37 52.85256 -32.24084 38510 ft 471 kts 265°
2026-05-01 13:38 52.84028 -32.40204 38518 ft 471 kts 264°
2026-05-01 13:39 52.83200 -32.50923 38512 ft 470 kts 264°
2026-05-01 13:39 52.82362 -32.61624 38507 ft 469 kts 264°
2026-05-01 13:40 52.81515 -32.72316 38517 ft 469 kts 264°
2026-05-01 13:40 52.80660 -32.82990 38516 ft 468 kts 264°
2026-05-01 13:41 52.79798 -32.93633 38492 ft 468 kts 264°
2026-05-01 13:41 52.78926 -33.04277 38480 ft 468 kts 263°
2026-05-01 13:42 52.78043 -33.14929 38486 ft 468 kts 263°
2026-05-01 13:42 52.77151 -33.25569 38512 ft 469 kts 263°
2026-05-01 13:43 52.76253 -33.36164 38514 ft 470 kts 263°
2026-05-01 13:43 52.75338 -33.46843 38519 ft 470 kts 263°
2026-05-01 13:44 52.74414 -33.57521 38511 ft 471 kts 263°
2026-05-01 13:44 52.73476 -33.68227 38522 ft 471 kts 262°
2026-05-01 13:45 52.72524 -33.78982 38533 ft 471 kts 262°
2026-05-01 13:45 52.71577 -33.89577 38527 ft 471 kts 262°
2026-05-01 13:46 52.70611 -34.00262 38527 ft 470 kts 262°
2026-05-01 13:46 52.69639 -34.10915 38521 ft 470 kts 262°
2026-05-01 13:47 52.68657 -34.21564 38522 ft 470 kts 262°
2026-05-01 13:47 52.67665 -34.32205 38519 ft 470 kts 262°
2026-05-01 13:48 52.66668 -34.42793 38517 ft 469 kts 261°
2026-05-01 13:48 52.65658 -34.53423 38522 ft 470 kts 261°
2026-05-01 13:49 52.64639 -34.64047 38510 ft 470 kts 261°
2026-05-01 13:49 52.63614 -34.74621 38530 ft 470 kts 261°
2026-05-01 13:50 52.62577 -34.85212 38521 ft 471 kts 261°
2026-05-01 13:50 52.61524 -34.95870 38533 ft 471 kts 261°
2026-05-01 13:51 52.60464 -35.06497 38543 ft 471 kts 261°
2026-05-01 13:51 52.59394 -35.17135 38516 ft 472 kts 260°
2026-05-01 13:52 52.58311 -35.27788 38526 ft 472 kts 259°
2026-05-01 13:52 52.57217 -35.38447 38533 ft 473 kts 259°
2026-05-01 13:53 52.56111 -35.49123 38534 ft 474 kts 259°
2026-05-01 13:53 52.54437 -35.65116 38535 ft 474 kts 259°
2026-05-01 13:54 52.53305 -35.75810 38529 ft 476 kts 259°
2026-05-01 13:54 52.52159 -35.86522 38534 ft 476 kts 259°
2026-05-01 13:55 52.51005 -35.97227 38537 ft 477 kts 259°
2026-05-01 13:55 52.49847 -36.07875 38547 ft 477 kts 259°
2026-05-01 13:56 52.48672 -36.18576 38542 ft 477 kts 258°
2026-05-01 13:56 52.47489 -36.29275 38530 ft 477 kts 258°
2026-05-01 13:57 52.46495 -36.38178 38536 ft 477 kts 258°
2026-05-01 13:57 52.45087 -36.50684 38538 ft 477 kts 258°
2026-05-01 13:58 52.43872 -36.61379 38538 ft 477 kts 258°
2026-05-01 13:58 52.42647 -36.72072 38544 ft 477 kts 258°
2026-05-01 13:59 52.41418 -36.82717 38533 ft 478 kts 257°
2026-05-01 13:59 52.40168 -36.93439 38534 ft 479 kts 257°
2026-05-01 14:00 52.38912 -37.04136 38543 ft 479 kts 257°
2026-05-01 14:00 52.37642 -37.14857 38543 ft 480 kts 257°
2026-05-01 14:01 52.36364 -37.25565 38551 ft 480 kts 257°
2026-05-01 14:01 52.35080 -37.36233 38532 ft 481 kts 256°
2026-05-01 14:02 52.33769 -37.47029 38540 ft 482 kts 256°
2026-05-01 14:02 52.32462 -37.57711 38539 ft 482 kts 256°
2026-05-01 14:03 52.31131 -37.68507 38544 ft 482 kts 256°
2026-05-01 14:03 52.29810 -37.79135 38534 ft 482 kts 256°
2026-05-01 14:04 52.28470 -37.89834 38546 ft 481 kts 256°
2026-05-01 14:04 52.27339 -37.98803 38539 ft 481 kts 256°
2026-05-01 14:05 52.25758 -38.11233 38541 ft 481 kts 256°
2026-05-01 14:05 52.24388 -38.21918 38542 ft 481 kts 256°
2026-05-01 14:06 52.23014 -38.32560 38498 ft 482 kts 255°
2026-05-01 14:06 52.21622 -38.43246 38515 ft 482 kts 255°
2026-05-01 14:07 52.20218 -38.53949 38543 ft 483 kts 255°
2026-05-01 14:08 52.18093 -38.69999 38549 ft 485 kts 255°
2026-05-01 14:08 52.16663 -38.80701 38560 ft 486 kts 255°
2026-05-01 14:09 52.15215 -38.91462 38531 ft 487 kts 255°
2026-05-01 14:09 52.13754 -39.02232 38546 ft 488 kts 255°
2026-05-01 14:10 52.12282 -39.13004 38561 ft 488 kts 255°
2026-05-01 14:10 52.10798 -39.23788 38557 ft 488 kts 254°
2026-05-01 14:11 52.09313 -39.34501 38529 ft 489 kts 254°
2026-05-01 14:11 52.07043 -39.50734 38529 ft 489 kts 254°
2026-05-01 14:12 52.05522 -39.61522 38536 ft 490 kts 254°
2026-05-01 14:12 52.04007 -39.72235 38542 ft 490 kts 254°
2026-05-01 14:13 52.02724 -39.81258 38538 ft 490 kts 254°
2026-05-01 14:13 52.00930 -39.93795 38528 ft 490 kts 254°
2026-05-01 14:14 51.99474 -40.04583 38527 ft 492 kts 259°
2026-05-01 14:14 51.98918 -40.15679 38530 ft 494 kts 264°
2026-05-01 14:15 51.98415 -40.26803 38533 ft 494 kts 262°
2026-05-01 14:15 51.97802 -40.37903 38537 ft 494 kts 262°
2026-05-01 14:16 51.97150 -40.48990 38531 ft 494 kts 262°
2026-05-01 14:16 51.96485 -40.60091 38529 ft 494 kts 262°
2026-05-01 14:17 51.95808 -40.71142 38540 ft 494 kts 262°
2026-05-01 14:17 51.95116 -40.82216 38539 ft 494 kts 262°
2026-05-01 14:18 51.94414 -40.93285 38537 ft 493 kts 262°
2026-05-01 14:18 51.93826 -41.02421 38525 ft 493 kts 262°
2026-05-01 14:19 51.92983 -41.15328 38523 ft 493 kts 262°
2026-05-01 14:19 51.92251 -41.26373 38522 ft 492 kts 262°
2026-05-01 14:20 51.91261 -41.41053 38521 ft 492 kts 261°
2026-05-01 14:21 51.90505 -41.52076 38521 ft 492 kts 261°
2026-05-01 14:21 51.89740 -41.63079 38541 ft 492 kts 261°
2026-05-01 14:22 51.88575 -41.79564 38528 ft 491 kts 261°
2026-05-01 14:22 51.87788 -41.90511 38523 ft 490 kts 261°
2026-05-01 14:23 51.86991 -42.01454 38516 ft 490 kts 261°
2026-05-01 14:23 51.86184 -42.12392 38514 ft 489 kts 261°
2026-05-01 14:24 51.85368 -42.23295 38523 ft 489 kts 261°
2026-05-01 14:24 51.84542 -42.34211 38515 ft 488 kts 261°
2026-05-01 14:25 51.83707 -42.45105 38522 ft 488 kts 261°
2026-05-01 14:25 51.82862 -42.55990 38523 ft 487 kts 261°
2026-05-01 14:26 51.81579 -42.72271 38527 ft 487 kts 261°
2026-05-01 14:27 51.80712 -42.83112 38523 ft 486 kts 261°
2026-05-01 14:27 51.79837 -42.93920 38515 ft 485 kts 261°
2026-05-01 14:28 51.78507 -43.10121 38515 ft 485 kts 261°
2026-05-01 14:28 51.77614 -43.20846 38511 ft 485 kts 261°
2026-05-01 14:29 51.76706 -43.31632 38512 ft 485 kts 261°
2026-05-01 14:30 51.74861 -43.53170 38517 ft 485 kts 260°
2026-05-01 14:31 51.73451 -43.69317 38517 ft 484 kts 260°
2026-05-01 14:31 51.72498 -43.80077 38513 ft 484 kts 260°
2026-05-01 14:32 51.71536 -43.90823 38519 ft 484 kts 260°
2026-05-01 14:32 51.70569 -44.01517 38514 ft 484 kts 260°
2026-05-01 14:33 51.69588 -44.12261 38510 ft 484 kts 260°
2026-05-01 14:33 51.68600 -44.22968 38516 ft 483 kts 260°
2026-05-01 14:34 51.67600 -44.33681 38513 ft 483 kts 260°
2026-05-01 14:34 51.66603 -44.44266 38514 ft 483 kts 259°
2026-05-01 14:35 51.65585 -44.54959 38505 ft 482 kts 259°
2026-05-01 14:35 51.64567 -44.65558 38507 ft 482 kts 259°
2026-05-01 14:36 51.63533 -44.76210 38513 ft 482 kts 259°
2026-05-01 14:36 51.62489 -44.86864 38512 ft 482 kts 259°
2026-05-01 14:37 51.61434 -44.97524 38510 ft 482 kts 259°
2026-05-01 14:37 51.60370 -45.08176 38495 ft 482 kts 259°
2026-05-01 14:38 51.59296 -45.18825 38491 ft 482 kts 259°
2026-05-01 14:38 51.58213 -45.29460 38494 ft 482 kts 259°
2026-05-01 14:39 51.57124 -45.40052 38499 ft 482 kts 259°
2026-05-01 14:39 51.56023 -45.50679 38496 ft 482 kts 258°
2026-05-01 14:40 51.54913 -45.61283 38501 ft 482 kts 258°
2026-05-01 14:40 51.53790 -45.71918 38497 ft 482 kts 258°
2026-05-01 14:41 51.52660 -45.82521 38500 ft 482 kts 258°
2026-05-01 14:41 51.51517 -45.93146 38507 ft 482 kts 258°
2026-05-01 14:42 51.50369 -46.03729 38504 ft 482 kts 258°
2026-05-01 14:42 51.49406 -46.12534 38503 ft 481 kts 258°
2026-05-01 14:43 51.48050 -46.24821 38490 ft 481 kts 258°
2026-05-01 14:43 51.46866 -46.35454 38492 ft 481 kts 258°
2026-05-01 14:44 51.45681 -46.46003 38487 ft 481 kts 258°
2026-05-01 14:44 51.43893 -46.61754 38488 ft 481 kts 258°
2026-05-01 14:45 51.42066 -46.77646 38492 ft 482 kts 258°
2026-05-01 14:46 51.40843 -46.88183 38485 ft 482 kts 258°
2026-05-01 14:46 51.38995 -47.03931 38490 ft 482 kts 258°
2026-05-01 14:47 51.37746 -47.14464 38491 ft 482 kts 258°
2026-05-01 14:48 51.35854 -47.30268 38480 ft 482 kts 258°
2026-05-01 14:48 51.33943 -47.46036 38482 ft 482 kts 257°
2026-05-01 14:49 51.31357 -47.67079 38486 ft 482 kts 257°
2026-05-01 14:50 51.28736 -47.88086 38477 ft 482 kts 257°
2026-05-01 14:51 51.26742 -48.03844 38479 ft 483 kts 257°
2026-05-01 14:52 51.24725 -48.19609 38477 ft 483 kts 257°
2026-05-01 14:53 51.22690 -48.35338 38483 ft 483 kts 257°
2026-05-01 14:53 51.21319 -48.45830 38466 ft 483 kts 257°
2026-05-01 14:54 51.19948 -48.56244 38471 ft 483 kts 257°
2026-05-01 14:54 51.18558 -48.66734 38472 ft 484 kts 257°
2026-05-01 14:55 51.17149 -48.77284 38469 ft 484 kts 257°
2026-05-01 14:55 51.15751 -48.87682 38470 ft 484 kts 257°
2026-05-01 14:56 51.14330 -48.98170 38468 ft 484 kts 257°
2026-05-01 14:56 51.12902 -49.08636 38469 ft 484 kts 256°
2026-05-01 14:57 51.11465 -49.19091 38465 ft 484 kts 256°
2026-05-01 14:57 51.09288 -49.34788 38458 ft 484 kts 256°
2026-05-01 14:58 51.07825 -49.45246 38459 ft 485 kts 256°
2026-05-01 14:58 51.06358 -49.55667 38458 ft 485 kts 256°
2026-05-01 14:59 51.04879 -49.66128 38453 ft 485 kts 256°
2026-05-01 14:59 51.03396 -49.76567 38453 ft 485 kts 256°
2026-05-01 15:00 51.01152 -49.92235 38451 ft 485 kts 255°
2026-05-01 15:01 50.99331 -50.02510 38450 ft 484 kts 251°
2026-05-01 15:01 50.96974 -50.12528 38423 ft 484 kts 248°
2026-05-01 15:02 50.94575 -50.22503 38431 ft 485 kts 249°
2026-05-01 15:02 50.92169 -50.32513 38436 ft 486 kts 248°
2026-05-01 15:03 50.89765 -50.42424 38443 ft 487 kts 248°
2026-05-01 15:03 50.87319 -50.52442 38441 ft 487 kts 248°
2026-05-01 15:04 50.84868 -50.62438 38437 ft 487 kts 248°
2026-05-01 15:04 50.82409 -50.72420 38437 ft 487 kts 248°
2026-05-01 15:05 50.79944 -50.82382 38431 ft 486 kts 248°
2026-05-01 15:05 50.77471 -50.92331 38429 ft 486 kts 248°
2026-05-01 15:06 50.74993 -51.02257 38422 ft 486 kts 248°
2026-05-01 15:06 50.72509 -51.12164 38418 ft 486 kts 248°
2026-05-01 15:07 50.70014 -51.22069 38421 ft 485 kts 248°
2026-05-01 15:07 50.67519 -51.31930 38415 ft 485 kts 248°
2026-05-01 15:08 50.65010 -51.41802 38421 ft 485 kts 248°
2026-05-01 15:08 50.62496 -51.51654 38418 ft 484 kts 248°
2026-05-01 15:09 50.59992 -51.61420 38410 ft 484 kts 248°
2026-05-01 15:09 50.57465 -51.71235 38409 ft 484 kts 248°
2026-05-01 15:10 50.54934 -51.81024 38406 ft 484 kts 247°
2026-05-01 15:10 50.51535 -51.94103 38398 ft 483 kts 247°
2026-05-01 15:11 50.47845 -52.08762 38393 ft 483 kts 249°
2026-05-01 15:12 50.45558 -52.18652 38406 ft 482 kts 249°
2026-05-01 15:12 50.42107 -52.33461 38404 ft 481 kts 249°
2026-05-01 15:14 50.36311 -52.57997 38376 ft 480 kts 248°
2026-05-01 15:14 50.32819 -52.72645 38362 ft 479 kts 248°
2026-05-01 15:15 50.28139 -52.92125 38369 ft 478 kts 248°
2026-05-01 15:16 50.23418 -53.11543 38383 ft 477 kts 248°
2026-05-01 15:18 50.17489 -53.35665 38365 ft 475 kts 248°
2026-05-01 15:19 50.12724 -53.54864 38367 ft 474 kts 247°
2026-05-01 15:19 50.09130 -53.69234 38341 ft 474 kts 248°
2026-05-01 15:20 50.05537 -53.83508 38334 ft 475 kts 247°
2026-05-01 15:21 50.03107 -53.93114 38326 ft 475 kts 247°
2026-05-01 15:21 50.00700 -54.02590 38339 ft 475 kts 247°
2026-05-01 15:22 49.97046 -54.16896 38348 ft 475 kts 247°
2026-05-01 15:22 49.94594 -54.26443 38343 ft 475 kts 247°
2026-05-01 15:23 49.92144 -54.35945 38327 ft 474 kts 246°
2026-05-01 15:23 49.89686 -54.45435 38328 ft 474 kts 246°
2026-05-01 15:24 49.87223 -54.54908 38320 ft 474 kts 246°
2026-05-01 15:24 49.84752 -54.64372 38312 ft 474 kts 246°
2026-05-01 15:25 49.82277 -54.73814 38309 ft 474 kts 246°
2026-05-01 15:25 49.79792 -54.83252 38303 ft 474 kts 246°
2026-05-01 15:26 49.77299 -54.92683 38305 ft 474 kts 246°
2026-05-01 15:26 49.74795 -55.02114 38302 ft 474 kts 246°
2026-05-01 15:27 49.72284 -55.11534 38294 ft 474 kts 246°
2026-05-01 15:28 49.68508 -55.25634 38287 ft 474 kts 246°
2026-05-01 15:28 49.65985 -55.35003 38290 ft 474 kts 246°
2026-05-01 15:29 49.62169 -55.49105 38291 ft 475 kts 246°
2026-05-01 15:30 49.57075 -55.67799 38294 ft 475 kts 246°
2026-05-01 15:31 49.49354 -55.95852 38286 ft 474 kts 245°
2026-05-01 15:32 49.44183 -56.14456 38276 ft 473 kts 245°
2026-05-01 15:34 49.36387 -56.42228 38265 ft 471 kts 245°